Wetterdaten: Sonntag, 02.11.2014
Datum Zeit Temp. A. Feuchte A. Luftdruck Regen Wind Richtung Richtung Sonnenschein ET UV Solar Taupunkt Windchill Windben Empfang
02.11.2014 00:00 4,8 C 86 % 1022,0 hPa 0,0 l/m 0,0 km/h (0 Bft) S 182 0 min 0,000 mm 0,0 UV-I 0 W/m 2,7 C 4,8 C 0,0 km/h (0 Bft) 0,00 %
02.11.2014 00:15 5,0 C 86 % 1021,9 hPa 0,0 l/m 0,0 km/h (0 Bft) S 173 0 min 0,000 mm 0,0 UV-I 0 W/m 2,9 C 5,0 C 0,0 km/h (0 Bft) 0,00 %
02.11.2014 00:30 5,2 C 86 % 1021,8 hPa 0,0 l/m 0,0 km/h (0 Bft) S 178 0 min 0,000 mm 0,0 UV-I 0 W/m 3,1 C 5,2 C 0,0 km/h (0 Bft) 0,00 %
02.11.2014 00:45 5,4 C 86 % 1021,6 hPa 0,0 l/m 0,0 km/h (0 Bft) SW 216 0 min 0,000 mm 0,0 UV-I 0 W/m 3,3 C 5,4 C 0,0 km/h (0 Bft) 0,00 %
02.11.2014 01:00 5,5 C 86 % 1021,7 hPa 0,0 l/m 0,0 km/h (0 Bft) S-SW 207 0 min 0,000 mm 0,0 UV-I 0 W/m 3,3 C 5,5 C 0,0 km/h (0 Bft) 0,00 %
02.11.2014 01:15 5,6 C 86 % 1021,7 hPa 0,0 l/m 0,0 km/h (0 Bft) S 187 0 min 0,000 mm 0,0 UV-I 0 W/m 3,4 C 5,6 C 0,0 km/h (0 Bft) 0,00 %
02.11.2014 01:30 5,6 C 86 % 1021,6 hPa 0,0 l/m 0,0 km/h (0 Bft) S-SW 199 0 min 0,000 mm 0,0 UV-I 0 W/m 3,4 C 5,6 C 0,0 km/h (0 Bft) 0,00 %
02.11.2014 01:45 5,6 C 86 % 1021,2 hPa 0,3 l/m 0,0 km/h (0 Bft) S 183 0 min 0,000 mm 0,0 UV-I 0 W/m 3,4 C 5,6 C 0,0 km/h (0 Bft) 0,00 %
02.11.2014 02:00 5,7 C 86 % 1021,2 hPa 0,0 l/m 0,0 km/h (0 Bft) SW 225 0 min 0,000 mm 0,0 UV-I 0 W/m 3,5 C 5,7 C 0,0 km/h (0 Bft) 0,00 %
02.11.2014 02:15 5,8 C 86 % 1021,0 hPa 0,0 l/m 0,0 km/h (0 Bft) SW 214 0 min 0,000 mm 0,0 UV-I 0 W/m 3,6 C 5,8 C 0,0 km/h (0 Bft) 0,00 %
02.11.2014 02:30 5,9 C 86 % 1020,9 hPa 0,0 l/m 0,0 km/h (0 Bft) S 179 0 min 0,000 mm 0,0 UV-I 0 W/m 3,7 C 5,9 C 0,0 km/h (0 Bft) 0,00 %
02.11.2014 02:45 5,9 C 86 % 1020,8 hPa 0,0 l/m 0,0 km/h (0 Bft) S 181 0 min 0,000 mm 0,0 UV-I 0 W/m 3,7 C 5,9 C 0,0 km/h (0 Bft) 0,00 %
02.11.2014 03:00 6,0 C 86 % 1020,9 hPa 0,0 l/m 0,0 km/h (0 Bft) S 185 0 min 0,000 mm 0,0 UV-I 0 W/m 3,8 C 6,0 C 0,0 km/h (0 Bft) 0,00 %
02.11.2014 03:15 6,0 C 86 % 1020,9 hPa 0,0 l/m 0,0 km/h (0 Bft) O-NO 78 0 min 0,000 mm 0,0 UV-I 0 W/m 3,8 C 6,0 C 0,0 km/h (0 Bft) 0,00 %
02.11.2014 03:30 6,0 C 86 % 1020,8 hPa 0,0 l/m 0,0 km/h (0 Bft) SW 215 0 min 0,000 mm 0,0 UV-I 0 W/m 3,8 C 6,0 C 0,0 km/h (0 Bft) 0,00 %
02.11.2014 03:45 5,7 C 86 % 1020,7 hPa 0,0 l/m 0,0 km/h (0 Bft) SW 216 0 min 0,000 mm 0,0 UV-I 0 W/m 3,5 C 5,7 C 0,0 km/h (0 Bft) 0,00 %
02.11.2014 04:00 5,5 C 86 % 1020,9 hPa 0,0 l/m 0,0 km/h (0 Bft) SW 215 0 min 0,000 mm 0,0 UV-I 0 W/m 3,3 C 5,5 C 0,0 km/h (0 Bft) 0,00 %
02.11.2014 04:15 5,4 C 86 % 1021,1 hPa 0,0 l/m 0,0 km/h (0 Bft) S-SW 213 0 min 0,000 mm 0,0 UV-I 0 W/m 3,3 C 5,4 C 0,0 km/h (0 Bft) 0,00 %
02.11.2014 04:30 5,1 C 87 % 1021,1 hPa 0,0 l/m 0,0 km/h (0 Bft) S-SW 198 0 min 0,000 mm 0,0 UV-I 0 W/m 3,1 C 5,1 C 0,0 km/h (0 Bft) 0,00 %
02.11.2014 04:45 5,0 C 87 % 1020,9 hPa 0,0 l/m 0,0 km/h (0 Bft) S-SW 200 0 min 0,000 mm 0,0 UV-I 0 W/m 3,0 C 5,0 C 0,0 km/h (0 Bft) 0,00 %
02.11.2014 05:00 5,0 C 87 % 1021,0 hPa 0,0 l/m 0,0 km/h (0 Bft) S-SW 199 0 min 0,000 mm 0,0 UV-I 0 W/m 3,0 C 5,0 C 0,0 km/h (0 Bft) 0,00 %
02.11.2014 05:15 4,9 C 87 % 1020,9 hPa 0,0 l/m 0,0 km/h (0 Bft) S-SW 197 0 min 0,000 mm 0,0 UV-I 0 W/m 2,9 C 4,9 C 0,0 km/h (0 Bft) 0,00 %
02.11.2014 05:30 4,8 C 87 % 1021,2 hPa 0,0 l/m 0,0 km/h (0 Bft) O-SO 118 0 min 0,000 mm 0,0 UV-I 0 W/m 2,8 C 4,8 C 0,0 km/h (0 Bft) 0,00 %
02.11.2014 05:45 4,6 C 87 % 1021,2 hPa 0,0 l/m 0,0 km/h (0 Bft) S-SW 198 0 min 0,000 mm 0,0 UV-I 0 W/m 2,6 C 4,6 C 0,0 km/h (0 Bft) 0,00 %
02.11.2014 06:00 4,6 C 87 % 1021,0 hPa 0,0 l/m 0,0 km/h (0 Bft) S-SW 200 0 min 0,000 mm 0,0 UV-I 0 W/m 2,6 C 4,6 C 0,0 km/h (0 Bft) 0,00 %
02.11.2014 06:15 4,6 C 87 % 1021,0 hPa 0,0 l/m 0,0 km/h (0 Bft) O-SO 121 0 min 0,000 mm 0,0 UV-I 0 W/m 2,6 C 4,6 C 0,0 km/h (0 Bft) 0,00 %
02.11.2014 06:30 4,6 C 87 % 1021,2 hPa 0,0 l/m 0,0 km/h (0 Bft) S 174 0 min 0,000 mm 0,0 UV-I 0 W/m 2,6 C 4,6 C 0,0 km/h (0 Bft) 0,00 %
02.11.2014 06:45 4,6 C 87 % 1021,2 hPa 0,0 l/m 0,0 km/h (0 Bft) O-SO 120 0 min 0,000 mm 0,0 UV-I 0 W/m 2,6 C 4,6 C 0,0 km/h (0 Bft) 0,00 %
02.11.2014 07:00 4,4 C 87 % 1021,3 hPa 0,0 l/m 0,0 km/h (0 Bft) O-SO 120 0 min 0,000 mm 0,0 UV-I 10 W/m 2,4 C 4,4 C 0,0 km/h (0 Bft) 0,00 %
02.11.2014 07:15 4,5 C 86 % 1021,2 hPa 0,0 l/m 0,0 km/h (0 Bft) SO 133 0 min 0,000 mm 0,0 UV-I 22 W/m 2,4 C 4,5 C 0,0 km/h (0 Bft) 0,00 %
02.11.2014 07:30 4,6 C 86 % 1021,2 hPa 0,0 l/m 0,0 km/h (0 Bft) O-SO 123 0 min 0,000 mm 1,0 UV-I 22 W/m 2,5 C 4,6 C 0,0 km/h (0 Bft) 0,00 %
02.11.2014 07:45 4,5 C 86 % 1021,1 hPa 0,0 l/m 0,0 km/h (0 Bft) S 178 0 min 0,000 mm 1,0 UV-I 24 W/m 2,4 C 4,5 C 0,0 km/h (0 Bft) 0,00 %
02.11.2014 08:00 4,8 C 86 % 1021,1 hPa 0,0 l/m 0,0 km/h (0 Bft) S 172 0 min 0,000 mm 1,0 UV-I 34 W/m 2,7 C 4,8 C 0,0 km/h (0 Bft) 0,00 %
02.11.2014 08:15 5,0 C 86 % 1021,0 hPa 0,0 l/m 0,0 km/h (0 Bft) W-SW 252 0 min 0,000 mm 1,0 UV-I 44 W/m 2,9 C 5,0 C 0,0 km/h (0 Bft) 0,00 %
02.11.2014 08:30 5,2 C 86 % 1021,0 hPa 0,0 l/m 0,0 km/h (0 Bft) S-SO 159 0 min 0,000 mm 1,0 UV-I 34 W/m 3,1 C 5,2 C 0,0 km/h (0 Bft) 0,00 %
02.11.2014 08:45 5,4 C 85 % 1021,1 hPa 0,0 l/m 0,0 km/h (0 Bft) S-SW 208 0 min 0,000 mm 1,0 UV-I 45 W/m 3,1 C 5,4 C 0,0 km/h (0 Bft) 0,00 %
02.11.2014 09:00 5,8 C 86 % 1020,8 hPa 0,0 l/m 0,0 km/h (0 Bft) SO 137 0 min 0,000 mm 1,0 UV-I 50 W/m 3,6 C 5,8 C 0,0 km/h (0 Bft) 0,00 %
02.11.2014 09:15 5,7 C 86 % 1020,8 hPa 0,0 l/m 0,0 km/h (0 Bft) S 191 0 min 0,000 mm 1,0 UV-I 66 W/m 3,5 C 5,7 C 0,0 km/h (0 Bft) 0,00 %
02.11.2014 09:30 6,0 C 86 % 1020,8 hPa 0,0 l/m 0,0 km/h (0 Bft) W-SW 256 0 min 0,000 mm 2,0 UV-I 77 W/m 3,8 C 6,0 C 0,0 km/h (0 Bft) 0,00 %
02.11.2014 09:45 6,4 C 86 % 1020,6 hPa 0,0 l/m 0,0 km/h (0 Bft) W-SW 246 0 min 0,000 mm 1,0 UV-I 67 W/m 4,2 C 6,4 C 0,0 km/h (0 Bft) 0,00 %
02.11.2014 10:00 6,6 C 85 % 1020,7 hPa 0,0 l/m 0,0 km/h (0 Bft) S-SO 155 0 min 0,000 mm 2,0 UV-I 89 W/m 4,3 C 6,6 C 0,0 km/h (0 Bft) 0,00 %
02.11.2014 10:15 7,2 C 86 % 1020,4 hPa 0,0 l/m 0,0 km/h (0 Bft) O-SO 108 0 min 0,000 mm 2,0 UV-I 78 W/m 5,0 C 7,2 C 0,0 km/h (0 Bft) 0,00 %
02.11.2014 10:30 7,0 C 85 % 1020,4 hPa 0,0 l/m 0,0 km/h (0 Bft) W-SW 255 0 min 0,000 mm 2,0 UV-I 90 W/m 4,7 C 7,0 C 0,0 km/h (0 Bft) 0,00 %
02.11.2014 10:45 6,5 C 85 % 1020,3 hPa 0,0 l/m 0,0 km/h (0 Bft) S 170 0 min 0,000 mm 2,0 UV-I 95 W/m 4,2 C 6,5 C 0,0 km/h (0 Bft) 0,00 %
02.11.2014 11:00 7,1 C 85 % 1019,9 hPa 0,0 l/m 0,0 km/h (0 Bft) S 188 0 min 0,000 mm 2,0 UV-I 111 W/m 4,8 C 7,1 C 0,0 km/h (0 Bft) 0,00 %
02.11.2014 11:15 7,4 C 84 % 1019,7 hPa 0,0 l/m 0,0 km/h (0 Bft) SO 129 0 min 0,000 mm 2,0 UV-I 100 W/m 4,9 C 7,4 C 0,0 km/h (0 Bft) 0,00 %
02.11.2014 11:30 7,2 C 83 % 1019,5 hPa 0,0 l/m 0,0 km/h (0 Bft) NW 316 0 min 0,000 mm 1,0 UV-I 122 W/m 4,5 C 7,2 C 0,0 km/h (0 Bft) 0,00 %
02.11.2014 11:45 7,4 C 83 % 1019,3 hPa 0,0 l/m 0,7 km/h (0 Bft) S 175 0 min 0,000 mm 1,0 UV-I 133 W/m 4,7 C 7,4 C 4,0 km/h (1 Bft) 0,00 %
02.11.2014 12:00 7,2 C 83 % 1019,1 hPa 0,0 l/m 0,0 km/h (0 Bft) N 356 0 min 0,000 mm 1,0 UV-I 120 W/m 4,5 C 7,2 C 0,0 km/h (0 Bft) 0,00 %
02.11.2014 12:15 7,6 C 83 % 1018,8 hPa 0,0 l/m 1,4 km/h (1 Bft) SO 124 0 min 0,000 mm 2,0 UV-I 123 W/m 4,9 C 7,6 C 4,0 km/h (1 Bft) 0,00 %
02.11.2014 12:30 7,8 C 82 % 1018,6 hPa 0,0 l/m 0,0 km/h (0 Bft) S 179 0 min 0,000 mm 1,0 UV-I 145 W/m 4,9 C 7,8 C 0,0 km/h (0 Bft) 0,00 %
02.11.2014 12:45 8,0 C 82 % 1018,8 hPa 0,0 l/m 0,4 km/h (0 Bft) W-NW 302 0 min 0,000 mm 1,0 UV-I 166 W/m 5,1 C 8,0 C 4,0 km/h (1 Bft) 0,00 %
02.11.2014 13:00 7,6 C 83 % 1018,8 hPa 0,0 l/m 0,4 km/h (0 Bft) N 350 0 min 0,000 mm 1,0 UV-I 166 W/m 4,9 C 7,6 C 4,0 km/h (1 Bft) 0,00 %
02.11.2014 13:15 7,5 C 83 % 1018,8 hPa 0,0 l/m 0,0 km/h (0 Bft) O-NO 67 0 min 0,000 mm 1,0 UV-I 134 W/m 4,8 C 7,5 C 0,0 km/h (0 Bft) 0,00 %
02.11.2014 13:30 7,6 C 83 % 1018,8 hPa 0,0 l/m 0,0 km/h (0 Bft) O 82 0 min 0,000 mm 1,0 UV-I 109 W/m 4,9 C 7,6 C 0,0 km/h (0 Bft) 0,00 %
02.11.2014 13:45 7,8 C 83 % 1018,8 hPa 0,0 l/m 0,0 km/h (0 Bft) O 93 0 min 0,000 mm 1,0 UV-I 100 W/m 5,1 C 7,8 C 0,0 km/h (0 Bft) 0,00 %
02.11.2014 14:00 7,9 C 84 % 1018,8 hPa 0,0 l/m 0,4 km/h (0 Bft) S 172 0 min 0,000 mm 1,0 UV-I 123 W/m 5,4 C 7,9 C 4,0 km/h (1 Bft) 0,00 %
02.11.2014 14:15 7,9 C 83 % 1018,8 hPa 0,0 l/m 0,0 km/h (0 Bft) S 175 0 min 0,000 mm 1,0 UV-I 111 W/m 5,2 C 7,9 C 0,0 km/h (0 Bft) 0,00 %
02.11.2014 14:30 7,9 C 83 % 1018,8 hPa 0,0 l/m 0,4 km/h (0 Bft) O-SO 114 0 min 0,000 mm 1,0 UV-I 100 W/m 5,2 C 7,9 C 4,0 km/h (1 Bft) 0,00 %
02.11.2014 14:45 7,6 C 83 % 1018,8 hPa 0,0 l/m 5,4 km/h (1 Bft) O 84 0 min 0,000 mm 1,0 UV-I 90 W/m 4,9 C 7,6 C 7,9 km/h (2 Bft) 0,00 %
02.11.2014 15:00 7,5 C 84 % 1018,8 hPa 0,0 l/m 0,4 km/h (0 Bft) S 177 0 min 0,000 mm 1,0 UV-I 88 W/m 5,0 C 7,5 C 4,0 km/h (1 Bft) 0,00 %
02.11.2014 15:15 7,5 C 84 % 1018,8 hPa 0,0 l/m 0,0 km/h (0 Bft) O-SO 119 0 min 0,000 mm 0,0 UV-I 70 W/m 5,0 C 7,5 C 0,0 km/h (0 Bft) 0,00 %
02.11.2014 15:30 7,2 C 84 % 1018,9 hPa 0,0 l/m 1,8 km/h (1 Bft) SO 130 0 min 0,000 mm 0,0 UV-I 34 W/m 4,7 C 7,2 C 4,0 km/h (1 Bft) 0,00 %
02.11.2014 15:45 7,2 C 85 % 1018,9 hPa 0,0 l/m 6,5 km/h (2 Bft) O-SO 114 0 min 0,000 mm 0,0 UV-I 45 W/m 4,9 C 7,1 C 7,9 km/h (2 Bft) 0,00 %
02.11.2014 16:00 7,0 C 85 % 1018,9 hPa 0,0 l/m 2,2 km/h (1 Bft) O-NO 68 15 min 0,000 mm 0,0 UV-I 56 W/m 4,7 C 7,0 C 4,0 km/h (1 Bft) 0,00 %
02.11.2014 16:15 7,0 C 85 % 1018,9 hPa 0,0 l/m 0,0 km/h (0 Bft) SO 137 0 min 0,000 mm 0,0 UV-I 0 W/m 4,7 C 7,0 C 0,0 km/h (0 Bft) 0,00 %
02.11.2014 16:30 7,0 C 85 % 1018,9 hPa 0,0 l/m 0,0 km/h (0 Bft) W-SW 256 0 min 0,000 mm 0,0 UV-I 0 W/m 4,7 C 7,0 C 0,0 km/h (0 Bft) 0,00 %
02.11.2014 16:45 7,0 C 85 % 1018,9 hPa 0,0 l/m 1,8 km/h (1 Bft) O 92 0 min 0,000 mm 0,0 UV-I 0 W/m 4,7 C 7,0 C 4,0 km/h (1 Bft) 0,00 %
02.11.2014 17:00 7,1 C 85 % 1018,9 hPa 0,0 l/m 4,0 km/h (1 Bft) O-SO 113 0 min 0,000 mm 0,0 UV-I 0 W/m 4,8 C 7,1 C 7,9 km/h (2 Bft) 0,00 %
02.11.2014 17:15 6,8 C 85 % 1019,0 hPa 0,0 l/m 1,4 km/h (1 Bft) S 174 0 min 0,000 mm 0,0 UV-I 0 W/m 4,5 C 6,8 C 4,0 km/h (1 Bft) 0,00 %
02.11.2014 17:30 6,8 C 85 % 1019,0 hPa 0,0 l/m 1,4 km/h (1 Bft) O 88 0 min 0,000 mm 0,0 UV-I 0 W/m 4,5 C 6,8 C 4,0 km/h (1 Bft) 0,00 %
02.11.2014 17:45 6,8 C 85 % 1019,0 hPa 0,0 l/m 0,4 km/h (0 Bft) O-SO 109 0 min 0,000 mm 0,0 UV-I 0 W/m 4,5 C 6,8 C 4,0 km/h (1 Bft) 0,00 %
02.11.2014 18:00 6,6 C 85 % 1019,0 hPa 0,0 l/m 0,4 km/h (0 Bft) O-SO 104 0 min 0,000 mm 0,0 UV-I 0 W/m 4,3 C 6,6 C 4,0 km/h (1 Bft) 0,00 %
02.11.2014 18:15 6,4 C 86 % 1019,0 hPa 0,0 l/m 0,0 km/h (0 Bft) O-SO 120 0 min 0,000 mm 0,0 UV-I 0 W/m 4,2 C 6,4 C 0,0 km/h (0 Bft) 0,00 %
02.11.2014 18:30 6,2 C 86 % 1019,0 hPa 0,0 l/m 0,4 km/h (0 Bft) O 99 0 min 0,000 mm 0,0 UV-I 0 W/m 4,0 C 6,2 C 4,0 km/h (1 Bft) 0,00 %
02.11.2014 18:45 6,2 C 86 % 1019,0 hPa 0,0 l/m 4,7 km/h (1 Bft) O 93 0 min 0,000 mm 0,0 UV-I 0 W/m 4,0 C 6,2 C 7,9 km/h (2 Bft) 0,00 %
02.11.2014 19:00 5,9 C 86 % 1019,1 hPa 0,0 l/m 2,2 km/h (1 Bft) O-SO 104 0 min 0,000 mm 0,0 UV-I 0 W/m 3,7 C 5,9 C 4,0 km/h (1 Bft) 0,00 %
02.11.2014 19:15 5,9 C 86 % 1019,1 hPa 0,0 l/m 4,7 km/h (1 Bft) O 100 0 min 0,000 mm 0,0 UV-I 0 W/m 3,7 C 5,9 C 7,9 km/h (2 Bft) 0,00 %
02.11.2014 19:30 5,9 C 86 % 1019,1 hPa 0,0 l/m 4,7 km/h (1 Bft) S 173 0 min 0,000 mm 0,0 UV-I 0 W/m 3,7 C 5,9 C 7,9 km/h (2 Bft) 0,00 %
02.11.2014 19:45 5,8 C 86 % 1019,1 hPa 0,0 l/m 0,7 km/h (0 Bft) O-SO 117 0 min 0,000 mm 0,0 UV-I 0 W/m 3,6 C 5,8 C 4,0 km/h (1 Bft) 0,00 %
02.11.2014 20:00 5,6 C 86 % 1019,1 hPa 0,0 l/m 3,2 km/h (1 Bft) O-SO 104 0 min 0,000 mm 0,0 UV-I 0 W/m 3,4 C 5,6 C 4,0 km/h (1 Bft) 0,00 %
02.11.2014 20:15 5,6 C 86 % 1019,1 hPa 0,0 l/m 0,7 km/h (0 Bft) SO 146 0 min 0,000 mm 0,0 UV-I 0 W/m 3,4 C 5,6 C 4,0 km/h (1 Bft) 0,00 %
02.11.2014 20:30 5,5 C 86 % 1019,2 hPa 0,0 l/m 0,0 km/h (0 Bft) S 189 0 min 0,000 mm 0,0 UV-I 0 W/m 3,3 C 5,5 C 0,0 km/h (0 Bft) 0,00 %
02.11.2014 20:45 5,5 C 86 % 1019,2 hPa 0,0 l/m 0,0 km/h (0 Bft) N 353 0 min 0,000 mm 0,0 UV-I 0 W/m 3,3 C 5,5 C 0,0 km/h (0 Bft) 0,00 %
02.11.2014 21:00 5,4 C 86 % 1019,2 hPa 0,0 l/m 0,0 km/h (0 Bft) O-NO 73 0 min 0,000 mm 0,0 UV-I 0 W/m 3,3 C 5,4 C 0,0 km/h (0 Bft) 0,00 %
02.11.2014 21:15 5,3 C 86 % 1019,2 hPa 0,0 l/m 0,0 km/h (0 Bft) SO 138 0 min 0,000 mm 0,0 UV-I 0 W/m 3,2 C 5,3 C 0,0 km/h (0 Bft) 0,00 %
02.11.2014 21:30 5,3 C 86 % 1019,2 hPa 0,0 l/m 0,7 km/h (0 Bft) O-SO 106 0 min 0,000 mm 0,0 UV-I 0 W/m 3,2 C 5,3 C 4,0 km/h (1 Bft) 0,00 %
02.11.2014 21:45 5,3 C 86 % 1019,2 hPa 0,0 l/m 0,7 km/h (0 Bft) O-SO 117 0 min 0,000 mm 0,0 UV-I 0 W/m 3,2 C 5,3 C 4,0 km/h (1 Bft) 0,00 %
02.11.2014 22:00 5,3 C 86 % 1019,2 hPa 0,0 l/m 0,0 km/h (0 Bft) O 94 0 min 0,000 mm 0,0 UV-I 0 W/m 3,2 C 5,3 C 0,0 km/h (0 Bft) 0,00 %
02.11.2014 22:15 5,3 C 86 % 1019,2 hPa 0,0 l/m 0,7 km/h (0 Bft) O 100 0 min 0,000 mm 0,0 UV-I 0 W/m 3,2 C 5,3 C 4,0 km/h (1 Bft) 0,00 %
02.11.2014 22:30 5,2 C 86 % 1019,2 hPa 0,0 l/m 2,2 km/h (1 Bft) O 96 0 min 0,000 mm 0,0 UV-I 0 W/m 3,1 C 5,2 C 4,0 km/h (1 Bft) 0,00 %
02.11.2014 22:45 5,1 C 86 % 1019,2 hPa 0,0 l/m 0,7 km/h (0 Bft) O 94 0 min 0,000 mm 0,0 UV-I 0 W/m 3,0 C 5,1 C 4,0 km/h (1 Bft) 0,00 %
02.11.2014 23:00 5,1 C 86 % 1019,2 hPa 0,3 l/m 0,0 km/h (0 Bft) S-SO 148 0 min 0,000 mm 0,0 UV-I 0 W/m 3,0 C 5,1 C 0,0 km/h (0 Bft) 0,00 %
02.11.2014 23:15 5,1 C 86 % 1019,2 hPa 0,0 l/m 0,0 km/h (0 Bft) SO 128 0 min 0,000 mm 0,0 UV-I 0 W/m 3,0 C 5,1 C 0,0 km/h (0 Bft) 0,00 %
02.11.2014 23:30 5,0 C 86 % 1019,2 hPa 0,0 l/m 1,4 km/h (1 Bft) O-SO 115 0 min 0,000 mm 0,0 UV-I 0 W/m 2,9 C 5,0 C 4,0 km/h (1 Bft) 0,00 %
02.11.2014 23:45 5,1 C 86 % 1019,2 hPa 0,0 l/m 1,4 km/h (1 Bft) O-SO 111 0 min 0,000 mm 0,0 UV-I 0 W/m 3,0 C 5,1 C 4,0 km/h (1 Bft) 0,00 %
_ Min-Zeit 07:00 12:30 12:30 - 00:00 - - - - - - 07:15 07:00 00:00 00:00
Minimum _ 4,4 C 82 % 1018,6 hPa - 0,0 km/h (0 Bft) - - - - - - 2,4 C 4,4 C 0,0 km/h (0 Bft) 0,00 %
_ Max-Zeit 12:45 04:30 00:00 01:45 15:45 - - 16:00 00:00 09:30 12:45 14:00 12:45 14:45 00:00
Maximum _ 8,0 C 87 % 1022,0 hPa 0,3 l/m 6,5 km/h
O-SO (2 Bft)
- - 15 min 0,000 mm 2,0 UV-I 166 W/m 5,4 C 8,0 C 7,9 km/h
O (2 Bft)
0,00 %
Durchschnitt _ 6,0 C 85 % 1020,0 hPa #0,6 l/m 0,6 km/h (0 Bft) O - #15 min. #0,000 mm 1,3 UV-I 84 W/m 3,8 C 6,0 C 1,6 km/h (1 Bft) 0,00 %